Location: La Comballaz
(46.3780°N, 7.0817°E)
Time: 23:46:57
(UTC+00:00)

COSMOS 2455 - Pass Details

Date: 09 April 2020
Orbit: 900 x 910 km, 67.1° (Epoch: 29 May)

Event Time Altitude Azimuth Distance (km) Brightness Sun altitude
Rises 20:01:40 0° 324° (NW) 3,546 7.3 -18.2°
Reaches altitude 10° 20:04:14 10° 320° (NW) 2,602 6.4 -18.5°
Maximum altitude 20:10:05 55° 245° (WSW) 1,088 3.4 -19.4°
Enters shadow 20:13:58 21° 175° (S) 1,907 4.2 -19.9°
